This demonstration page uses our WeatherBlox Daily Observations layout. Learn more.

Left ArrowRight Arrow

36.17497, -115.13722

Hourly Observations for December 24, 2019

Temp ( °F °C ) Dew Point ( °F °C ) Humidity (%) Winds ( mph kmh ) Pressure ( in mb ) Visibility ( mi km ) Precip ( " mm )
1:59 am 01:59 Cloudy 47 8.3 43 6.3 87 87 N 10 17 29.83 1010 10 16 0.00 0.00
2:54 am 02:54 Cloudy 47 8.5 43 6.3 86 86 NNE 9 15 29.83 1010 10 16 0.00 0.00
3:57 am 03:57 Cloudy 47 8.4 43 6.2 86 86 N 6 9 29.81 1010 10 16 0.00 0.00
4:55 am 04:55 Mostly Cloudy 46 7.8 43 6.2 90 90 N 10 17 29.81 1009 10 16 0.00 0.00
5:57 am 05:57 Cloudy 45 7.4 43 6.1 92 92 NNE 9 15 29.82 1010 10 16 0.00 0.00
6:58 am 06:58 Cloudy 46 7.6 43 6.2 91 91 NE 9 15 29.82 1010 10 16 0.00 0.00
7:59 am 07:59 Cloudy 46 8 41 5 82 82 NE 8 13 29.82 1010 10 16 0.00 0.00
8:55 am 08:55 Cloudy 48 9 41 5 76 76 NNE 9 15 29.80 1009 10 16 0.00 0.00
9:55 am 09:55 Cloudy 48 9 43 6 82 82 VRB 6 9 29.83 1010 10 16 0.00 0.00
10:55 am 10:55 Cloudy 48 9 41 5 76 76 Calm 29.79 1009 10 16 0.00 0.00
11:55 am 11:55 Mostly Cloudy 50 10 43 6 76 76 S 5 7 29.74 1007 10 16 0.00 0.00
12:25 pm 12:25 Mostly Cloudy 50 10 43 6 76 76 S 5 7 29.74 1007 10 16 0.00 0.00
12:55 pm 12:55 Mostly Cloudy 50 10 43 6 76 76 SSE 3 6 29.73 1007 10 16 0.00 0.00
1:57 pm 13:57 Mostly Cloudy 51 10.8 51 10.8 100 100 Calm 29.71 1006 10 16 0.00 0.00
2:58 pm 14:58 Sunny 53 11.4 51 10.8 96 96 Calm 29.71 1006 10 16 0.00 0.00
3:58 pm 15:58 Sunny 51 10.3 51 10.3 100 100 ESE 10 17 29.72 1007 10 16 0.00 0.00
4:58 pm 16:58 Mostly Clear 50 9.9 49 9.6 98 98 ESE 10 17 29.73 1007 10 16 0.00 0.00
5:58 pm 17:58 Partly Cloudy 50 9.8 48 8.9 94 94 ESE 9 15 29.74 1007 10 16 0.00 0.00
6:58 pm 18:58 Clear 48 9 42 5.4 78 78 SSW 15 24 29.76 1008 10 16 0.00 0.00
7:58 pm 19:58 Mostly Cloudy 47 8.3 40 4.7 78 78 SSE 10 17 29.77 1008 10 16 0.00 0.00
8:58 pm 20:58 Clear 46 8 37 3 71 71 SSE 9 15 29.77 1008 10 16 0.00 0.00
9:58 pm 21:58 Mostly Clear 44 6.9 40 4.4 84 84 S 10 17 29.79 1009 10 16 0.00 0.00
10:58 pm 22:58 Clear 44 6.8 39 3.9 82 82 S 8 13 29.78 1008 10 16 0.00 0.00
11:58 pm 23:58 Partly Cloudy 44 6.8 41 5.1 89 89 Calm 29.79 1009 10 16 0.00 0.00

Powered by AerisWeather